Time,TemperatureF,DewpointF,PressureIn,WindDirection,WindDirectionDegrees,WindSpeedMPH,WindSpeedGustMPH,Humidity,HourlyPrecipIn,Conditions,Clouds,dailyrainin,SoftwareType,DateUTC
2013-01-03 00:01:00,44.8,40.6,30.15,ENE,57,1.0,2.0,85,0.00,,---,0.00,VWS V14.01,2013-01-03 05:01:00,
2013-01-03 00:02:00,44.8,40.6,30.15,ENE,58,1.0,2.0,85,0.00,,---,0.00,VWS V14.01,2013-01-03 05:02:00,
2013-01-03 00:03:00,44.7,40.5,30.15,NE,48,2.0,4.0,85,0.00,,---,0.00,VWS V14.01,2013-01-03 05:03:00,
2013-01-03 00:09:00,44.7,40.8,30.16,ENE,77,0.0,4.0,86,0.00,,---,0.00,VWS V14.01,2013-01-03 05:09:00,
2013-01-03 00:14:00,44.7,40.8,30.16,ENE,78,0.0,1.0,86,0.00,,---,0.00,VWS V14.01,2013-01-03 05:14:00,
2013-01-03 00:19:00,44.7,40.8,30.16,ENE,77,0.0,3.0,86,0.00,,---,0.00,VWS V14.01,2013-01-03 05:19:00,
2013-01-03 00:24:00,44.7,40.8,30.15,East,94,2.0,2.0,86,0.00,,---,0.00,VWS V14.01,2013-01-03 05:24:00,
2013-01-03 00:29:00,44.6,40.7,30.15,East,101,0.0,2.0,86,0.00,,---,0.00,VWS V14.01,2013-01-03 05:29:00,
2013-01-03 00:34:00,44.6,40.7,30.15,SE,135,1.0,3.0,86,0.00,,---,0.00,VWS V14.01,2013-01-03 05:34:00,
2013-01-03 00:39:00,44.6,40.7,30.15,ENE,78,0.0,2.0,86,0.00,,---,0.00,VWS V14.01,2013-01-03 05:39:00,
2013-01-03 00:44:00,44.6,40.7,30.14,ENE,60,1.0,4.0,86,0.00,,---,0.00,VWS V14.01,2013-01-03 05:44:00,
2013-01-03 00:49:00,44.5,40.9,30.14,NE,49,1.0,4.0,87,0.00,,---,0.00,VWS V14.01,2013-01-03 05:49:00,
2013-01-03 00:54:00,44.5,40.9,30.14,NE,36,2.0,4.0,87,0.00,,---,0.00,VWS V14.01,2013-01-03 05:54:00,
2013-01-03 00:59:00,44.4,40.8,30.14,ENE,65,0.0,4.0,87,0.00,,---,0.00,VWS V14.01,2013-01-03 05:59:00,
2013-01-03 01:04:00,44.4,41.1,30.14,ENE,68,4.0,4.0,88,0.00,,---,0.00,VWS V14.01,2013-01-03 06:04:00,
2013-01-03 01:09:00,44.3,41.0,30.15,East,89,0.0,1.0,88,0.00,,---,0.00,VWS V14.01,2013-01-03 06:09:00,
2013-01-03 01:14:00,44.3,41.3,30.15,ENE,60,0.0,2.0,89,0.00,,---,0.00,VWS V14.01,2013-01-03 06:14:00,
2013-01-03 01:19:00,44.3,41.3,30.15,East,94,1.0,2.0,89,0.00,,---,0.00,VWS V14.01,2013-01-03 06:19:00,
2013-01-03 01:24:00,44.3,41.3,30.15,East,97,2.0,5.0,89,0.00,,---,0.00,VWS V14.01,2013-01-03 06:24:00,
2013-01-03 01:29:00,44.2,41.2,30.14,ESE,117,2.0,8.0,89,0.00,,---,0.00,VWS V14.01,2013-01-03 06:29:00,
2013-01-03 01:34:00,44.1,41.4,30.15,East,98,0.0,4.0,90,0.00,,---,0.00,VWS V14.01,2013-01-03 06:34:00,
2013-01-03 01:39:00,44.1,41.4,30.15,SE,138,0.0,2.0,90,0.00,,---,0.00,VWS V14.01,2013-01-03 06:39:00,
2013-01-03 01:44:00,44.0,41.5,30.15,ESE,118,3.0,6.0,91,0.00,,---,0.00,VWS V14.01,2013-01-03 06:44:00,
2013-01-03 01:49:00,43.9,41.5,30.15,ESE,105,3.0,3.0,91,0.00,,---,0.00,VWS V14.01,2013-01-03 06:49:00,
2013-01-03 01:54:00,43.8,41.6,30.15,ENE,72,3.0,5.0,92,0.00,,---,0.00,VWS V14.01,2013-01-03 06:54:00,
2013-01-03 01:59:00,43.7,41.5,30.14,ESE,117,4.0,6.0,92,0.00,,---,0.00,VWS V14.01,2013-01-03 06:59:00,
2013-01-03 02:04:00,43.6,41.7,30.14,SE,134,4.0,7.0,93,0.00,,---,0.00,VWS V14.01,2013-01-03 07:04:00,
2013-01-03 02:09:00,43.5,41.6,30.14,ESE,122,5.0,7.0,93,0.00,,---,0.00,VWS V14.01,2013-01-03 07:09:00,
2013-01-03 02:14:00,43.5,41.6,30.15,East,82,4.0,7.0,93,0.00,,---,0.00,VWS V14.01,2013-01-03 07:14:00,
2013-01-03 02:19:00,43.4,41.5,30.15,ESE,120,1.0,9.0,93,0.00,,---,0.00,VWS V14.01,2013-01-03 07:19:00,
2013-01-03 02:24:00,43.4,41.5,30.15,ESE,107,5.0,5.0,93,0.00,,---,0.00,VWS V14.01,2013-01-03 07:24:00,
2013-01-03 02:29:00,43.3,41.1,30.15,SSE,155,4.0,4.0,92,0.00,,---,0.00,VWS V14.01,2013-01-03 07:29:00,
2013-01-03 02:34:00,43.3,41.1,30.16,East,101,1.0,4.0,92,0.00,,---,0.00,VWS V14.01,2013-01-03 07:34:00,
2013-01-03 02:39:00,43.3,41.1,30.16,East,82,1.0,5.0,92,0.00,,---,0.00,VWS V14.01,2013-01-03 07:39:00,
2013-01-03 02:44:00,43.3,41.1,30.16,ESE,107,0.0,3.0,92,0.00,,---,0.00,VWS V14.01,2013-01-03 07:44:00,
2013-01-03 02:49:00,43.3,41.1,30.16,East,95,0.0,2.0,92,0.00,,---,0.00,VWS V14.01,2013-01-03 07:49:00,
2013-01-03 02:54:00,43.2,41.0,30.16,East,85,0.0,1.0,92,0.00,,---,0.00,VWS V14.01,2013-01-03 07:54:00,
2013-01-03 02:59:00,43.1,40.9,30.16,NE,56,0.0,1.0,92,0.00,,---,0.00,VWS V14.01,2013-01-03 07:59:00,
2013-01-03 03:04:00,43.1,40.9,30.17,NE,47,2.0,3.0,92,0.00,,---,0.00,VWS V14.01,2013-01-03 08:04:00,
2013-01-03 03:09:00,43.0,40.8,30.17,NE,44,1.0,3.0,92,0.00,,---,0.00,VWS V14.01,2013-01-03 08:09:00,
2013-01-03 03:14:00,43.0,40.8,30.17,NE,37,1.0,3.0,92,0.00,,---,0.00,VWS V14.01,2013-01-03 08:14:00,
2013-01-03 03:19:00,42.9,41.0,30.17,NE,53,0.0,3.0,93,0.00,,---,0.00,VWS V14.01,2013-01-03 08:19:00,
2013-01-03 03:24:00,42.9,41.0,30.18,NE,50,0.0,1.0,93,0.00,,---,0.00,VWS V14.01,2013-01-03 08:24:00,
2013-01-03 03:29:00,42.8,40.9,30.18,NNE,30,0.0,1.0,93,0.00,,---,0.00,VWS V14.01,2013-01-03 08:29:00,
2013-01-03 03:34:00,42.7,40.8,30.17,NE,40,0.0,2.0,93,0.00,,---,0.00,VWS V14.01,2013-01-03 08:34:00,
2013-01-03 03:39:00,42.7,40.8,30.17,NE,43,0.0,1.0,93,0.00,,---,0.00,VWS V14.01,2013-01-03 08:39:00,
2013-01-03 03:45:00,42.6,40.7,30.17,NNE,27,0.0,2.0,93,0.00,,---,0.00,VWS V14.01,2013-01-03 08:45:00,
2013-01-03 03:50:00,42.6,40.7,30.17,North,9,0.0,1.0,93,0.00,,---,0.00,VWS V14.01,2013-01-03 08:50:00,
2013-01-03 03:55:00,42.5,40.6,30.17,NE,40,0.0,2.0,93,0.00,,---,0.00,VWS V14.01,2013-01-03 08:55:00,
2013-01-03 04:00:00,42.5,40.6,30.17,NNW,340,0.0,2.0,93,0.00,,---,0.00,VWS V14.01,2013-01-03 09:00:00,
2013-01-03 04:05:00,42.4,40.5,30.17,NW,323,3.0,5.0,93,0.00,,---,0.00,VWS V14.01,2013-01-03 09:05:00,
2013-01-03 04:10:00,42.4,40.8,30.17,NNE,25,1.0,4.0,94,0.00,,---,0.00,VWS V14.01,2013-01-03 09:10:00,
2013-01-03 04:15:00,42.4,40.5,30.16,NE,44,0.0,8.0,93,0.00,,---,0.00,VWS V14.01,2013-01-03 09:15:00,
2013-01-03 04:20:00,42.4,40.5,30.17,NE,46,1.0,10.0,93,0.00,,---,0.00,VWS V14.01,2013-01-03 09:20:00,
2013-01-03 04:25:00,42.4,40.5,30.17,NNE,33,1.0,5.0,93,0.00,,---,0.00,VWS V14.01,2013-01-03 09:25:00,
2013-01-03 04:30:00,42.3,40.4,30.17,NE,44,1.0,5.0,93,0.00,,---,0.00,VWS V14.01,2013-01-03 09:30:00,
2013-01-03 04:35:00,42.3,40.4,30.17,NE,47,2.0,4.0,93,0.00,,---,0.00,VWS V14.01,2013-01-03 09:35:00,
2013-01-03 04:40:00,42.3,40.4,30.17,NE,45,1.0,6.0,93,0.00,,---,0.00,VWS V14.01,2013-01-03 09:40:00,
2013-01-03 04:45:00,42.2,40.3,30.18,North,9,0.0,4.0,93,0.00,,---,0.00,VWS V14.01,2013-01-03 09:45:00,
2013-01-03 04:50:00,42.2,40.0,30.17,ENE,73,6.0,6.0,92,0.00,,---,0.00,VWS V14.01,2013-01-03 09:50:00,
2013-01-03 04:55:00,42.2,40.0,30.18,ENE,60,0.0,4.0,92,0.01,,---,0.01,VWS V14.01,2013-01-03 09:55:00,
2013-01-03 05:00:00,42.1,40.0,30.17,NE,50,3.0,5.0,92,0.01,,---,0.01,VWS V14.01,2013-01-03 10:00:00,
2013-01-03 05:05:00,42.0,39.8,30.17,ENE,77,0.0,3.0,92,0.01,,---,0.01,VWS V14.01,2013-01-03 10:05:00,
2013-01-03 05:10:00,41.9,40.0,30.17,SE,135,0.0,5.0,93,0.01,,---,0.01,VWS V14.01,2013-01-03 10:10:00,
2013-01-03 05:15:00,41.8,39.9,30.16,East,96,6.0,8.0,93,0.01,,---,0.01,VWS V14.01,2013-01-03 10:15:00,
2013-01-03 05:20:00,41.7,39.8,30.15,East,101,5.0,8.0,93,0.01,,---,0.01,VWS V14.01,2013-01-03 10:20:00,
2013-01-03 05:25:00,41.7,39.8,30.16,SE,132,1.0,6.0,93,0.01,,---,0.01,VWS V14.01,2013-01-03 10:25:00,
2013-01-03 05:30:00,41.7,39.8,30.16,SE,131,1.0,3.0,93,0.01,,---,0.01,VWS V14.01,2013-01-03 10:30:00,
2013-01-03 05:35:00,41.6,39.7,30.16,ESE,110,9.0,9.0,93,0.01,,---,0.01,VWS V14.01,2013-01-03 10:35:00,
2013-01-03 05:40:00,41.6,39.5,30.15,ENE,71,6.0,11.0,92,0.01,,---,0.01,VWS V14.01,2013-01-03 10:40:00,
2013-01-03 05:45:00,41.6,39.5,30.15,ESE,114,7.0,12.0,92,0.01,,---,0.01,VWS V14.01,2013-01-03 10:45:00,
2013-01-03 05:50:00,41.6,39.5,30.16,ESE,117,3.0,10.0,92,0.01,,---,0.01,VWS V14.01,2013-01-03 10:50:00,
2013-01-03 05:55:00,41.6,39.5,30.16,SE,124,2.0,6.0,92,0.01,,---,0.01,VWS V14.01,2013-01-03 10:55:00,
2013-01-03 06:01:00,41.6,39.5,30.17,East,96,2.0,6.0,92,0.00,,---,0.01,VWS V14.01,2013-01-03 11:01:00,
2013-01-03 06:06:00,41.6,39.5,30.17,ENE,60,0.0,4.0,92,0.00,,---,0.01,VWS V14.01,2013-01-03 11:06:00,
2013-01-03 06:11:00,41.6,39.5,30.18,NNE,33,3.0,4.0,92,0.00,,---,0.01,VWS V14.01,2013-01-03 11:11:00,
2013-01-03 06:16:00,41.6,39.5,30.17,East,88,1.0,3.0,92,0.00,,---,0.01,VWS V14.01,2013-01-03 11:16:00,
2013-01-03 06:21:00,41.6,39.5,30.17,SSE,150,1.0,5.0,92,0.00,,---,0.01,VWS V14.01,2013-01-03 11:21:00,
2013-01-03 06:26:00,41.6,39.5,30.18,North,1,1.0,5.0,92,0.00,,---,0.01,VWS V14.01,2013-01-03 11:26:00,
2013-01-03 06:31:00,41.6,39.5,30.18,East,98,1.0,3.0,92,0.00,,---,0.01,VWS V14.01,2013-01-03 11:31:00,
2013-01-03 06:36:00,41.6,39.5,30.18,SE,127,0.0,3.0,92,0.00,,---,0.01,VWS V14.01,2013-01-03 11:36:00,
2013-01-03 06:41:00,41.6,39.5,30.17,East,99,1.0,3.0,92,0.00,,---,0.01,VWS V14.01,2013-01-03 11:41:00,
2013-01-03 06:46:00,41.5,39.3,30.17,SE,139,1.0,3.0,92,0.00,,---,0.01,VWS V14.01,2013-01-03 11:46:00,
2013-01-03 06:51:00,41.5,39.3,30.18,East,95,1.0,1.0,92,0.00,,---,0.01,VWS V14.01,2013-01-03 11:51:00,
2013-01-03 06:56:00,41.5,39.1,30.18,East,84,0.0,0.0,91,0.00,,---,0.01,VWS V14.01,2013-01-03 11:56:00,
2013-01-03 07:01:00,41.5,39.1,30.18,ENE,64,3.0,4.0,91,0.00,,---,0.01,VWS V14.01,2013-01-03 12:01:00,
2013-01-03 07:06:00,41.5,39.1,30.18,ESE,110,0.0,1.0,91,0.00,,---,0.01,VWS V14.01,2013-01-03 12:06:00,
2013-01-03 07:11:00,41.5,39.1,30.19,ESE,110,0.0,0.0,91,0.00,,---,0.01,VWS V14.01,2013-01-03 12:11:00,
2013-01-03 07:16:00,41.5,39.1,30.18,ENE,77,1.0,2.0,91,0.00,,---,0.01,VWS V14.01,2013-01-03 12:16:00,
2013-01-03 07:21:00,41.5,39.1,30.19,NE,41,0.0,0.0,91,0.00,,---,0.01,VWS V14.01,2013-01-03 12:21:00,
2013-01-03 07:26:00,41.5,38.8,30.18,East,79,0.0,0.0,90,0.00,,---,0.01,VWS V14.01,2013-01-03 12:26:00,
2013-01-03 07:31:00,41.5,39.1,30.18,East,79,1.0,1.0,91,0.00,,---,0.01,VWS V14.01,2013-01-03 12:31:00,
2013-01-03 07:36:00,41.5,39.1,30.19,North,359,0.0,0.0,91,0.00,,---,0.01,VWS V14.01,2013-01-03 12:36:00,
2013-01-03 07:41:00,41.5,39.1,30.19,North,4,0.0,0.0,91,0.00,,---,0.01,VWS V14.01,2013-01-03 12:41:00,
2013-01-03 07:46:00,41.5,39.1,30.19,NE,43,0.0,0.0,91,0.00,,---,0.01,VWS V14.01,2013-01-03 12:46:00,
2013-01-03 07:51:00,41.5,39.1,30.19,NNE,25,0.0,0.0,91,0.00,,---,0.01,VWS V14.01,2013-01-03 12:51:00,
2013-01-03 07:56:00,41.5,39.1,30.20,NNE,30,0.0,1.0,91,0.00,,---,0.01,VWS V14.01,2013-01-03 12:56:00,
2013-01-03 08:01:00,41.5,39.1,30.20,NE,46,1.0,2.0,91,0.00,,---,0.01,VWS V14.01,2013-01-03 13:01:00,
2013-01-03 08:06:00,41.5,39.1,30.20,North,9,0.0,1.0,91,0.00,,---,0.01,VWS V14.01,2013-01-03 13:06:00,
2013-01-03 08:11:00,41.5,39.1,30.20,North,9,0.0,1.0,91,0.00,,---,0.01,VWS V14.01,2013-01-03 13:11:00,
2013-01-03 08:16:00,41.5,39.3,30.20,ESE,120,0.0,0.0,92,0.00,,---,0.01,VWS V14.01,2013-01-03 13:16:00,
2013-01-03 08:21:00,41.5,39.3,30.20,ESE,114,0.0,0.0,92,0.00,,---,0.01,VWS V14.01,2013-01-03 13:21:00,
2013-01-03 08:26:00,41.5,39.3,30.20,NNW,342,1.0,1.0,92,0.00,,---,0.01,VWS V14.01,2013-01-03 13:26:00,
2013-01-03 08:31:00,41.5,39.3,30.21,NW,326,0.0,0.0,92,0.00,,---,0.01,VWS V14.01,2013-01-03 13:31:00,
2013-01-03 08:36:00,41.6,39.5,30.22,NNE,20,0.0,0.0,92,0.00,,---,0.01,VWS V14.01,2013-01-03 13:36:00,
2013-01-03 08:41:00,41.6,39.5,30.21,NE,46,1.0,1.0,92,0.00,,---,0.01,VWS V14.01,2013-01-03 13:41:00,
2013-01-03 08:46:00,41.6,39.5,30.22,NW,326,0.0,2.0,92,0.00,,---,0.01,VWS V14.01,2013-01-03 13:46:00,
2013-01-03 08:51:00,41.7,39.3,30.22,NE,44,0.0,1.0,91,0.00,,---,0.01,VWS V14.01,2013-01-03 13:51:00,
2013-01-03 08:56:00,41.7,39.3,30.22,NNE,23,0.0,0.0,91,0.00,,---,0.01,VWS V14.01,2013-01-03 13:56:00,
2013-01-03 09:01:00,41.7,39.3,30.22,NE,46,1.0,1.0,91,0.00,,---,0.01,VWS V14.01,2013-01-03 14:01:00,
2013-01-03 09:07:00,41.8,39.4,30.22,East,94,0.0,4.0,91,0.00,,---,0.01,VWS V14.01,2013-01-03 14:07:00,
2013-01-03 09:12:00,41.7,39.3,30.22,ENE,57,2.0,4.0,91,0.00,,---,0.01,VWS V14.01,2013-01-03 14:12:00,
2013-01-03 09:17:00,41.7,39.3,30.22,ENE,78,1.0,1.0,91,0.00,,---,0.01,VWS V14.01,2013-01-03 14:17:00,
2013-01-03 09:22:00,41.7,39.0,30.22,NE,43,4.0,4.0,90,0.00,,---,0.01,VWS V14.01,2013-01-03 14:22:00,
2013-01-03 09:27:00,41.8,39.1,30.22,NE,47,1.0,4.0,90,0.00,,---,0.01,VWS V14.01,2013-01-03 14:27:00,
2013-01-03 09:32:00,41.8,38.8,30.22,NE,49,2.0,6.0,89,0.00,,---,0.01,VWS V14.01,2013-01-03 14:32:00,
2013-01-03 09:37:00,41.8,38.8,30.22,NE,48,3.0,3.0,89,0.00,,---,0.01,VWS V14.01,2013-01-03 14:37:00,
2013-01-03 09:42:00,41.8,38.8,30.22,NE,43,2.0,6.0,89,0.00,,---,0.01,VWS V14.01,2013-01-03 14:42:00,
2013-01-03 09:47:00,41.8,38.8,30.22,ESE,110,0.0,2.0,89,0.00,,---,0.01,VWS V14.01,2013-01-03 14:47:00,
2013-01-03 09:52:00,41.9,38.9,30.22,NE,51,0.0,1.0,89,0.00,,---,0.01,VWS V14.01,2013-01-03 14:52:00,
2013-01-03 09:57:00,41.9,38.6,30.22,NE,56,2.0,3.0,88,0.00,,---,0.01,VWS V14.01,2013-01-03 14:57:00,
2013-01-03 10:02:00,41.9,38.6,30.23,North,350,0.0,7.0,88,0.00,,---,0.01,VWS V14.01,2013-01-03 15:02:00,
2013-01-03 10:07:00,41.9,38.3,30.23,NE,47,6.0,8.0,87,0.00,,---,0.01,VWS V14.01,2013-01-03 15:07:00,
2013-01-03 10:12:00,41.9,38.3,30.23,NE,53,5.0,6.0,87,0.00,,---,0.01,VWS V14.01,2013-01-03 15:12:00,
2013-01-03 10:17:00,41.9,38.6,30.23,ENE,72,0.0,5.0,88,0.00,,---,0.01,VWS V14.01,2013-01-03 15:17:00,
2013-01-03 10:22:00,42.0,38.7,30.23,NE,39,2.0,4.0,88,0.00,,---,0.01,VWS V14.01,2013-01-03 15:22:00,
2013-01-03 10:27:00,42.2,38.9,30.22,East,89,1.0,1.0,88,0.00,,---,0.01,VWS V14.01,2013-01-03 15:27:00,
2013-01-03 10:32:00,42.2,38.6,30.22,NNE,26,0.0,4.0,87,0.00,,---,0.01,VWS V14.01,2013-01-03 15:32:00,
2013-01-03 10:37:00,42.2,38.3,30.23,NE,47,1.0,5.0,86,0.00,,---,0.01,VWS V14.01,2013-01-03 15:37:00,
2013-01-03 10:42:00,42.2,38.6,30.23,ENE,60,2.0,5.0,87,0.00,,---,0.01,VWS V14.01,2013-01-03 15:42:00,
2013-01-03 10:47:00,42.3,38.7,30.24,NE,37,0.0,6.0,87,0.00,,---,0.01,VWS V14.01,2013-01-03 15:47:00,
2013-01-03 10:52:00,42.3,38.4,30.23,ENE,64,1.0,5.0,86,0.00,,---,0.01,VWS V14.01,2013-01-03 15:52:00,
2013-01-03 10:57:00,42.4,38.8,30.23,SE,127,0.0,4.0,87,0.00,,---,0.01,VWS V14.01,2013-01-03 15:57:00,
2013-01-03 11:02:00,42.5,38.9,30.23,ENE,62,4.0,4.0,87,0.00,,---,0.01,VWS V14.01,2013-01-03 16:02:00,
2013-01-03 11:07:00,42.5,38.9,30.23,ENE,72,2.0,4.0,87,0.00,,---,0.01,VWS V14.01,2013-01-03 16:07:00,
2013-01-03 11:13:00,42.7,39.4,30.23,NE,56,0.0,0.0,88,0.00,,---,0.01,VWS V14.01,2013-01-03 16:13:00,
2013-01-03 11:18:00,42.7,39.1,30.24,NE,37,1.0,5.0,87,0.00,,---,0.01,VWS V14.01,2013-01-03 16:18:00,
2013-01-03 11:23:00,42.7,39.1,30.22,ESE,113,1.0,2.0,87,0.00,,---,0.01,VWS V14.01,2013-01-03 16:23:00,
2013-01-03 11:28:00,42.6,38.7,30.22,East,96,1.0,2.0,86,0.00,,---,0.01,VWS V14.01,2013-01-03 16:28:00,
2013-01-03 11:33:00,42.6,38.7,30.22,ESE,121,2.0,5.0,86,0.00,,---,0.01,VWS V14.01,2013-01-03 16:33:00,
2013-01-03 11:38:00,42.7,39.1,30.23,NNE,29,1.0,3.0,87,0.00,,---,0.01,VWS V14.01,2013-01-03 16:38:00,
2013-01-03 11:43:00,42.7,38.8,30.22,East,84,0.0,5.0,86,0.00,,---,0.01,VWS V14.01,2013-01-03 16:43:00,
2013-01-03 11:48:00,42.8,38.9,30.22,East,89,2.0,3.0,86,0.00,,---,0.01,VWS V14.01,2013-01-03 16:48:00,
2013-01-03 11:53:00,42.7,38.8,30.21,ESE,121,5.0,5.0,86,0.00,,---,0.01,VWS V14.01,2013-01-03 16:53:00,
2013-01-03 11:58:00,42.6,39.0,30.21,ESE,107,2.0,5.0,87,0.00,,---,0.01,VWS V14.01,2013-01-03 16:58:00,
2013-01-03 12:03:00,42.7,39.4,30.20,ESE,122,5.0,7.0,88,0.00,,---,0.01,VWS V14.01,2013-01-03 17:03:00,
2013-01-03 12:08:00,42.8,39.5,30.20,East,84,1.0,5.0,88,0.00,,---,0.01,VWS V14.01,2013-01-03 17:08:00,
2013-01-03 12:13:00,42.9,39.3,30.20,ESE,103,5.0,5.0,87,0.00,,---,0.01,VWS V14.01,2013-01-03 17:13:00,
2013-01-03 12:18:00,42.8,39.5,30.20,East,82,7.0,7.0,88,0.00,,---,0.01,VWS V14.01,2013-01-03 17:18:00,
2013-01-03 12:23:00,42.8,39.5,30.19,ENE,57,0.0,5.0,88,0.00,,---,0.01,VWS V14.01,2013-01-03 17:23:00,
2013-01-03 12:28:00,43.0,39.7,30.20,ENE,57,2.0,2.0,88,0.00,,---,0.01,VWS V14.01,2013-01-03 17:28:00,
2013-01-03 12:33:00,42.9,39.3,30.20,ENE,64,2.0,3.0,87,0.00,,---,0.01,VWS V14.01,2013-01-03 17:33:00,
2013-01-03 12:38:00,42.7,39.1,30.20,East,85,1.0,3.0,87,0.00,,---,0.01,VWS V14.01,2013-01-03 17:38:00,
2013-01-03 12:43:00,42.8,39.5,30.20,SE,136,0.0,1.0,88,0.00,,---,0.01,VWS V14.01,2013-01-03 17:43:00,
2013-01-03 12:48:00,42.9,39.6,30.20,ESE,110,3.0,4.0,88,0.00,,---,0.01,VWS V14.01,2013-01-03 17:48:00,
2013-01-03 12:53:00,42.8,39.5,30.20,ESE,113,3.0,4.0,88,0.00,,---,0.01,VWS V14.01,2013-01-03 17:53:00,
2013-01-03 12:58:00,42.7,39.7,30.19,SE,139,2.0,5.0,89,0.00,,---,0.01,VWS V14.01,2013-01-03 17:58:00,
2013-01-03 13:03:00,42.7,39.7,30.19,East,98,1.0,1.0,89,0.00,,---,0.01,VWS V14.01,2013-01-03 18:03:00,
2013-01-03 13:08:00,42.8,39.8,30.19,ESE,113,2.0,2.0,89,0.00,,---,0.01,VWS V14.01,2013-01-03 18:08:00,
2013-01-03 13:13:00,42.8,39.5,30.20,ESE,105,0.0,2.0,88,0.00,,---,0.01,VWS V14.01,2013-01-03 18:13:00,
2013-01-03 13:18:00,42.7,39.4,30.19,ESE,118,2.0,4.0,88,0.00,,---,0.01,VWS V14.01,2013-01-03 18:18:00,
2013-01-03 13:23:00,42.7,39.7,30.19,SE,127,2.0,2.0,89,0.00,,---,0.01,VWS V14.01,2013-01-03 18:23:00,
2013-01-03 13:28:00,42.8,39.8,30.18,SSW,194,0.0,2.0,89,0.00,,---,0.01,VWS V14.01,2013-01-03 18:28:00,
2013-01-03 13:33:00,42.9,39.6,30.18,ESE,115,1.0,3.0,88,0.00,,---,0.01,VWS V14.01,2013-01-03 18:33:00,
2013-01-03 13:38:00,42.9,39.6,30.18,SSE,149,0.0,2.0,88,0.00,,---,0.01,VWS V14.01,2013-01-03 18:38:00,
2013-01-03 13:43:00,43.1,39.8,30.19,ENE,70,0.0,1.0,88,0.00,,---,0.01,VWS V14.01,2013-01-03 18:43:00,
2013-01-03 13:48:00,43.1,39.8,30.18,SE,143,2.0,5.0,88,0.00,,---,0.01,VWS V14.01,2013-01-03 18:48:00,
2013-01-03 13:53:00,43.0,39.7,30.18,SE,132,1.0,3.0,88,0.00,,---,0.01,VWS V14.01,2013-01-03 18:53:00,
2013-01-03 13:58:00,43.0,39.7,30.18,ESE,118,1.0,3.0,88,0.00,,---,0.01,VWS V14.01,2013-01-03 18:58:00,
2013-01-03 14:03:00,43.0,39.7,30.18,NE,56,0.0,3.0,88,0.00,,---,0.01,VWS V14.01,2013-01-03 19:03:00,
2013-01-03 14:08:00,43.0,39.7,30.18,ENE,60,0.0,2.0,88,0.00,,---,0.01,VWS V14.01,2013-01-03 19:08:00,
2013-01-03 14:13:00,43.1,39.8,30.18,ENE,61,1.0,1.0,88,0.00,,---,0.01,VWS V14.01,2013-01-03 19:13:00,
2013-01-03 14:18:00,43.1,39.8,30.19,ENE,71,0.0,2.0,88,0.00,,---,0.01,VWS V14.01,2013-01-03 19:18:00,
2013-01-03 14:51:00,43.3,40.0,30.20,East,89,0.0,0.0,88,0.00,,---,0.01,VWS V14.01,2013-01-03 19:51:00,
2013-01-03 14:56:00,43.3,40.0,30.19,NNE,20,0.0,1.0,88,0.00,,---,0.01,VWS V14.01,2013-01-03 19:56:00,
2013-01-03 15:01:00,43.3,40.0,30.19,NNW,347,0.0,1.0,88,0.00,,---,0.01,VWS V14.01,2013-01-03 20:01:00,
2013-01-03 15:06:00,43.3,40.0,30.20,NW,323,1.0,3.0,88,0.00,,---,0.01,VWS V14.01,2013-01-03 20:06:00,
2013-01-03 15:11:00,43.3,40.0,30.20,NNW,330,2.0,5.0,88,0.00,,---,0.01,VWS V14.01,2013-01-03 20:11:00,
2013-01-03 15:16:00,43.2,40.2,30.20,NNW,334,0.0,5.0,89,0.00,,---,0.01,VWS V14.01,2013-01-03 20:16:00,
2013-01-03 15:21:00,43.1,40.1,30.20,North,351,1.0,4.0,89,0.00,,---,0.01,VWS V14.01,2013-01-03 20:21:00,
2013-01-03 15:26:00,43.0,40.3,30.21,NNW,337,2.0,4.0,90,0.00,,---,0.01,VWS V14.01,2013-01-03 20:26:00,
2013-01-03 15:31:00,43.0,40.3,30.21,NW,326,1.0,3.0,90,0.00,,---,0.01,VWS V14.01,2013-01-03 20:31:00,
2013-01-03 15:36:00,42.9,40.2,30.21,NNW,335,1.0,5.0,90,0.00,,---,0.01,VWS V14.01,2013-01-03 20:36:00,
2013-01-03 15:41:00,42.9,40.2,30.21,NW,323,0.0,3.0,90,0.00,,---,0.01,VWS V14.01,2013-01-03 20:41:00,
2013-01-03 15:46:00,42.9,40.2,30.22,NNW,339,0.0,0.0,90,0.00,,---,0.01,VWS V14.01,2013-01-03 20:46:00,
2013-01-03 15:51:00,42.9,40.5,30.21,North,349,0.0,1.0,91,0.00,,---,0.01,VWS V14.01,2013-01-03 20:51:00,
2013-01-03 15:56:00,42.8,40.4,30.22,NW,305,0.0,0.0,91,0.00,,---,0.01,VWS V14.01,2013-01-03 20:56:00,
2013-01-03 16:01:00,42.7,40.5,30.22,NNE,28,0.0,0.0,92,0.00,,---,0.01,VWS V14.01,2013-01-03 21:01:00,
2013-01-03 16:06:00,42.7,40.5,30.22,NNW,332,0.0,0.0,92,0.00,,---,0.01,VWS V14.01,2013-01-03 21:06:00,
2013-01-03 16:11:00,42.6,40.4,30.21,NNW,331,0.0,0.0,92,0.00,,---,0.01,VWS V14.01,2013-01-03 21:11:00,
2013-01-03 16:16:00,42.6,40.4,30.22,NE,43,0.0,0.0,92,0.00,,---,0.01,VWS V14.01,2013-01-03 21:16:00,
2013-01-03 16:21:00,42.6,40.7,30.22,NE,42,0.0,0.0,93,0.00,,---,0.01,VWS V14.01,2013-01-03 21:21:00,
2013-01-03 16:26:00,42.7,40.8,30.22,NE,43,0.0,1.0,93,0.00,,---,0.01,VWS V14.01,2013-01-03 21:26:00,
2013-01-03 16:31:00,42.6,40.4,30.22,NE,43,0.0,0.0,92,0.00,,---,0.01,VWS V14.01,2013-01-03 21:31:00,
2013-01-03 16:36:00,42.7,40.5,30.22,NE,43,0.0,0.0,92,0.00,,---,0.01,VWS V14.01,2013-01-03 21:36:00,
2013-01-03 16:41:00,42.7,40.5,30.22,NE,43,0.0,1.0,92,0.00,,---,0.01,VWS V14.01,2013-01-03 21:41:00,
2013-01-03 16:46:00,42.7,40.5,30.22,NNE,32,0.0,0.0,92,0.00,,---,0.01,VWS V14.01,2013-01-03 21:46:00,
2013-01-03 16:51:00,42.8,40.6,30.22,NNE,32,0.0,0.0,92,0.00,,---,0.01,VWS V14.01,2013-01-03 21:51:00,
2013-01-03 16:56:00,42.8,40.6,30.23,NNW,328,1.0,1.0,92,0.00,,---,0.01,VWS V14.01,2013-01-03 21:56:00,
2013-01-03 17:01:00,42.9,40.7,30.22,NNW,327,0.0,0.0,92,0.00,,---,0.01,VWS V14.01,2013-01-03 22:01:00,
2013-01-03 17:06:00,42.9,40.7,30.23,NNW,327,0.0,1.0,92,0.00,,---,0.01,VWS V14.01,2013-01-03 22:06:00,
2013-01-03 17:11:00,42.9,40.7,30.23,NNW,327,1.0,1.0,92,0.00,,---,0.01,VWS V14.01,2013-01-03 22:11:00,
2013-01-03 17:16:00,42.9,40.7,30.24,NNW,327,1.0,1.0,92,0.00,,---,0.01,VWS V14.01,2013-01-03 22:16:00,
2013-01-03 17:21:00,42.9,40.7,30.23,NNW,327,0.0,0.0,92,0.00,,---,0.01,VWS V14.01,2013-01-03 22:21:00,
2013-01-03 17:26:00,42.9,40.7,30.24,NNW,328,0.0,0.0,92,0.00,,---,0.01,VWS V14.01,2013-01-03 22:26:00,
2013-01-03 17:31:00,42.9,40.7,30.24,NNW,328,0.0,1.0,92,0.00,,---,0.01,VWS V14.01,2013-01-03 22:31:00,
2013-01-03 17:36:00,42.9,40.7,30.24,NNW,328,0.0,0.0,92,0.00,,---,0.01,VWS V14.01,2013-01-03 22:36:00,
2013-01-03 17:41:00,42.8,40.6,30.24,NNW,328,0.0,1.0,92,0.00,,---,0.01,VWS V14.01,2013-01-03 22:41:00,
2013-01-03 17:46:00,42.8,40.6,30.24,NNW,328,0.0,0.0,92,0.00,,---,0.01,VWS V14.01,2013-01-03 22:46:00,
2013-01-03 17:51:00,42.7,40.5,30.25,NNW,328,0.0,0.0,92,0.00,,---,0.01,VWS V14.01,2013-01-03 22:51:00,
2013-01-03 17:56:00,42.7,40.5,30.25,NNW,328,0.0,0.0,92,0.00,,---,0.01,VWS V14.01,2013-01-03 22:56:00,
2013-01-03 18:01:00,42.6,40.4,30.25,NNW,328,0.0,0.0,92,0.00,,---,0.01,VWS V14.01,2013-01-03 23:01:00,
2013-01-03 18:06:00,42.5,40.3,30.25,NNW,328,0.0,0.0,92,0.00,,---,0.01,VWS V14.01,2013-01-03 23:06:00,
2013-01-03 18:11:00,42.4,40.2,30.25,NNW,328,0.0,0.0,92,0.00,,---,0.01,VWS V14.01,2013-01-03 23:11:00,
2013-01-03 18:16:00,42.2,40.0,30.25,NNW,328,0.0,0.0,92,0.00,,---,0.01,VWS V14.01,2013-01-03 23:16:00,
2013-01-03 18:21:00,42.1,40.2,30.25,NNW,328,0.0,0.0,93,0.00,,---,0.01,VWS V14.01,2013-01-03 23:21:00,
2013-01-03 18:26:00,42.0,40.1,30.25,NNW,328,0.0,0.0,93,0.00,,---,0.01,VWS V14.01,2013-01-03 23:26:00,
2013-01-03 18:31:00,42.0,40.1,30.25,NNW,328,0.0,0.0,93,0.00,,---,0.01,VWS V14.01,2013-01-03 23:31:00,
2013-01-03 18:36:00,42.0,40.1,30.26,NNW,328,0.0,0.0,93,0.00,,---,0.01,VWS V14.01,2013-01-03 23:36:00,
2013-01-03 18:41:00,41.9,40.0,30.26,NNW,328,0.0,0.0,93,0.00,,---,0.01,VWS V14.01,2013-01-03 23:41:00,
2013-01-03 18:46:00,41.8,39.9,30.26,NNW,328,0.0,0.0,93,0.00,,---,0.01,VWS V14.01,2013-01-03 23:46:00,
2013-01-03 18:51:00,41.7,39.8,30.26,NNW,328,0.0,0.0,93,0.00,,---,0.01,VWS V14.01,2013-01-03 23:51:00,
2013-01-03 18:56:00,41.7,39.8,30.26,NNW,329,1.0,1.0,93,0.00,,---,0.01,VWS V14.01,2013-01-03 23:56:00,
2013-01-03 19:01:00,41.7,39.8,30.27,NNW,329,0.0,0.0,93,0.00,,---,0.01,VWS V14.01,2013-01-04 00:01:00,
2013-01-03 19:06:00,41.6,39.7,30.27,NNW,329,0.0,0.0,93,0.00,,---,0.01,VWS V14.01,2013-01-04 00:06:00,
2013-01-03 19:11:00,41.6,39.7,30.27,NNW,328,0.0,0.0,93,0.00,,---,0.01,VWS V14.01,2013-01-04 00:11:00,
2013-01-03 19:16:00,41.6,39.7,30.28,NNW,329,0.0,0.0,93,0.00,,---,0.01,VWS V14.01,2013-01-04 00:16:00,
2013-01-03 19:21:00,41.6,39.7,30.27,NNW,329,0.0,0.0,93,0.00,,---,0.01,VWS V14.01,2013-01-04 00:21:00,
2013-01-03 19:26:00,41.5,39.6,30.27,NNW,329,0.0,0.0,93,0.00,,---,0.01,VWS V14.01,2013-01-04 00:26:00,
2013-01-03 19:31:00,41.3,39.4,30.28,NNW,328,0.0,1.0,93,0.00,,---,0.01,VWS V14.01,2013-01-04 00:31:00,
2013-01-03 19:36:00,41.3,39.4,30.28,NNW,328,0.0,0.0,93,0.00,,---,0.01,VWS V14.01,2013-01-04 00:36:00,
2013-01-03 19:41:00,41.2,39.3,30.28,NNW,329,0.0,0.0,93,0.00,,---,0.01,VWS V14.01,2013-01-04 00:41:00,
2013-01-03 19:46:00,41.2,39.3,30.29,NNW,328,0.0,0.0,93,0.00,,---,0.01,VWS V14.01,2013-01-04 00:46:00,
2013-01-03 19:51:00,41.1,39.5,30.29,NNW,328,0.0,1.0,94,0.00,,---,0.01,VWS V14.01,2013-01-04 00:51:00,
2013-01-03 19:57:00,41.1,39.5,30.29,NNW,329,0.0,0.0,94,0.00,,---,0.01,VWS V14.01,2013-01-04 00:57:00,
2013-01-03 20:02:00,41.0,39.4,30.29,NNW,328,0.0,0.0,94,0.00,,---,0.01,VWS V14.01,2013-01-04 01:02:00,
2013-01-03 20:07:00,40.9,39.3,30.29,NNW,329,0.0,0.0,94,0.00,,---,0.01,VWS V14.01,2013-01-04 01:07:00,
2013-01-03 20:12:00,40.7,39.1,30.29,NNW,329,0.0,0.0,94,0.00,,---,0.01,VWS V14.01,2013-01-04 01:12:00,
2013-01-03 20:17:00,40.6,39.0,30.29,NNW,329,1.0,1.0,94,0.00,,---,0.01,VWS V14.01,2013-01-04 01:17:00,
2013-01-03 20:22:00,40.6,39.0,30.29,NNW,329,0.0,1.0,94,0.00,,---,0.01,VWS V14.01,2013-01-04 01:22:00,
2013-01-03 20:27:00,40.5,38.9,30.29,NNW,329,0.0,1.0,94,0.00,,---,0.01,VWS V14.01,2013-01-04 01:27:00,
2013-01-03 20:32:00,40.5,38.9,30.29,NNW,329,0.0,0.0,94,0.00,,---,0.01,VWS V14.01,2013-01-04 01:32:00,
2013-01-03 20:37:00,40.4,38.8,30.30,NNW,328,0.0,1.0,94,0.00,,---,0.01,VWS V14.01,2013-01-04 01:37:00,
2013-01-03 20:42:00,40.3,38.7,30.29,NNW,328,0.0,0.0,94,0.00,,---,0.01,VWS V14.01,2013-01-04 01:42:00,
2013-01-03 20:47:00,40.3,39.0,30.29,NNW,329,0.0,2.0,95,0.00,,---,0.01,VWS V14.01,2013-01-04 01:47:00,
2013-01-03 20:52:00,40.3,39.0,30.30,NNW,328,0.0,1.0,95,0.00,,---,0.01,VWS V14.01,2013-01-04 01:52:00,
2013-01-03 20:57:00,40.2,38.9,30.30,NNW,328,0.0,0.0,95,0.00,,---,0.01,VWS V14.01,2013-01-04 01:57:00,
2013-01-03 21:02:00,40.1,38.8,30.30,NNW,328,0.0,0.0,95,0.00,,---,0.01,VWS V14.01,2013-01-04 02:02:00,
2013-01-03 21:07:00,40.0,38.7,30.30,NNW,328,0.0,1.0,95,0.00,,---,0.01,VWS V14.01,2013-01-04 02:07:00,
2013-01-03 21:12:00,39.8,38.2,30.30,NNW,328,0.0,0.0,94,0.00,,---,0.01,VWS V14.01,2013-01-04 02:12:00,
2013-01-03 21:17:00,39.6,38.3,30.30,NNW,328,0.0,0.0,95,0.00,,---,0.01,VWS V14.01,2013-01-04 02:17:00,
2013-01-03 21:22:00,39.5,38.2,30.30,NNW,329,0.0,0.0,95,0.00,,---,0.01,VWS V14.01,2013-01-04 02:22:00,
2013-01-03 21:27:00,39.4,38.1,30.30,NNW,328,0.0,0.0,95,0.00,,---,0.01,VWS V14.01,2013-01-04 02:27:00,
2013-01-03 21:32:00,39.2,37.9,30.30,NNW,329,0.0,0.0,95,0.00,,---,0.01,VWS V14.01,2013-01-04 02:32:00,
2013-01-03 21:37:00,38.9,37.6,30.31,NNW,328,0.0,0.0,95,0.00,,---,0.01,VWS V14.01,2013-01-04 02:37:00,
2013-01-03 21:42:00,38.9,37.9,30.31,NNW,328,0.0,0.0,96,0.00,,---,0.01,VWS V14.01,2013-01-04 02:42:00,
2013-01-03 21:47:00,38.9,37.9,30.31,NNW,329,0.0,0.0,96,0.00,,---,0.01,VWS V14.01,2013-01-04 02:47:00,
2013-01-03 21:52:00,38.7,37.7,30.31,NNW,328,0.0,0.0,96,0.00,,---,0.01,VWS V14.01,2013-01-04 02:52:00,
2013-01-03 21:57:00,38.5,37.5,30.31,NNW,328,0.0,0.0,96,0.00,,---,0.01,VWS V14.01,2013-01-04 02:57:00,
2013-01-03 22:02:00,38.8,37.8,30.31,NNW,328,0.0,0.0,96,0.00,,---,0.01,VWS V14.01,2013-01-04 03:02:00,
2013-01-03 22:07:00,38.7,37.7,30.31,NNW,328,0.0,0.0,96,0.00,,---,0.01,VWS V14.01,2013-01-04 03:07:00,
2013-01-03 22:12:00,38.4,37.4,30.31,NNW,329,0.0,0.0,96,0.00,,---,0.01,VWS V14.01,2013-01-04 03:12:00,
2013-01-03 22:17:00,38.3,37.3,30.31,NNW,328,0.0,0.0,96,0.00,,---,0.01,VWS V14.01,2013-01-04 03:17:00,
2013-01-03 22:22:00,38.5,37.5,30.31,NNW,328,0.0,0.0,96,0.00,,---,0.01,VWS V14.01,2013-01-04 03:22:00,
2013-01-03 22:27:00,38.5,37.5,30.31,NNW,328,0.0,0.0,96,0.00,,---,0.01,VWS V14.01,2013-01-04 03:27:00,
2013-01-03 22:32:00,38.4,37.4,30.31,NNW,329,0.0,0.0,96,0.00,,---,0.01,VWS V14.01,2013-01-04 03:32:00,
2013-01-03 22:37:00,38.4,37.4,30.31,NNW,329,0.0,0.0,96,0.00,,---,0.01,VWS V14.01,2013-01-04 03:37:00,
2013-01-03 22:42:00,38.1,37.1,30.31,NNW,328,0.0,0.0,96,0.00,,---,0.01,VWS V14.01,2013-01-04 03:42:00,
2013-01-03 22:47:00,38.1,37.1,30.31,NNW,328,0.0,0.0,96,0.00,,---,0.01,VWS V14.01,2013-01-04 03:47:00,
2013-01-03 22:52:00,38.1,37.1,30.31,NNW,329,0.0,0.0,96,0.00,,---,0.01,VWS V14.01,2013-01-04 03:52:00,
2013-01-03 22:57:00,37.9,36.9,30.31,NNW,329,0.0,0.0,96,0.00,,---,0.01,VWS V14.01,2013-01-04 03:57:00,
2013-01-03 23:02:00,37.7,36.7,30.31,NNW,329,0.0,0.0,96,0.00,,---,0.01,VWS V14.01,2013-01-04 04:02:00,
2013-01-03 23:07:00,37.5,36.5,30.31,NNW,329,0.0,0.0,96,0.00,,---,0.01,VWS V14.01,2013-01-04 04:07:00,
2013-01-03 23:12:00,37.3,36.3,30.31,NNW,328,0.0,0.0,96,0.00,,---,0.01,VWS V14.01,2013-01-04 04:12:00,
2013-01-03 23:17:00,37.2,36.2,30.31,NNW,329,0.0,1.0,96,0.00,,---,0.01,VWS V14.01,2013-01-04 04:17:00,
2013-01-03 23:22:00,37.1,36.1,30.31,NNW,328,0.0,0.0,96,0.00,,---,0.01,VWS V14.01,2013-01-04 04:22:00,
2013-01-03 23:27:00,37.0,36.0,30.31,NNW,329,0.0,0.0,96,0.00,,---,0.01,VWS V14.01,2013-01-04 04:27:00,
2013-01-03 23:32:00,36.9,35.9,30.31,NNW,328,0.0,0.0,96,0.00,,---,0.01,VWS V14.01,2013-01-04 04:32:00,
2013-01-03 23:37:00,36.8,35.8,30.31,NNW,342,0.0,0.0,96,0.00,,---,0.01,VWS V14.01,2013-01-04 04:37:00,
2013-01-03 23:42:00,36.7,35.7,30.31,NNW,343,0.0,1.0,96,0.00,,---,0.01,VWS V14.01,2013-01-04 04:42:00,
2013-01-03 23:47:00,36.5,35.5,30.31,NNW,342,0.0,0.0,96,0.00,,---,0.01,VWS V14.01,2013-01-04 04:47:00,
2013-01-03 23:52:00,36.3,35.3,30.31,NNW,342,0.0,0.0,96,0.00,,---,0.01,VWS V14.01,2013-01-04 04:52:00,
2013-01-03 23:57:00,35.9,34.9,30.31,NNW,345,0.0,1.0,96,0.00,,---,0.01,VWS V14.01,2013-01-04 04:57:00,